Simultaneous Nadir Overpasses (SNOs) Predictions

Prediction of SNOs between GOES-17 and AQUA Satellite Orbit:

Table of predicted SNOs for the next 14.0 days since TLE Epoch: 4/15/2022
Index Date Time (GOES-17) GOES-17 Lat,Lon AQUA Lat,Lon Distance(km) Time Diff (sec)
1 04/16/2022 10:39:40 -0.03,-137.18 -0.33,-135.91 144.95 80
2 04/16/2022 23:03:40 0.03,-137.18 -0.80,-141.09 444.37 80
3 04/18/2022 10:27:16 -0.04,-137.17 -0.93,-132.89 486.11 80
4 04/18/2022 22:51:17 0.03,-137.16 -0.13,-138.08 103.46 80
5 04/20/2022 22:36:13 0.03,-137.14 0.49,-135.06 236.70 80
6 04/21/2022 11:00:05 -0.03,-137.14 0.61,-140.20 348.03 80
7 04/23/2022 10:45:01 -0.02,-137.10 -0.03,-137.18 9.16 80
8 04/25/2022 10:32:36 -0.02,-137.07 -0.63,-134.16 330.74 80
9 04/25/2022 22:53:57 0.01,-137.05 -0.46,-139.34 259.18 80
10 04/27/2022 22:44:12 0.01,-137.02 0.17,-136.32 80.21 80
